カタログに戻る

AMC-8

GE-8

運用中通信GEO
NORAD 26639·PAYLOAD·🇱🇺 Luxembourg

打ち上げ Dec 20, 2000 から Guiana Space Centre

Loading…

TLE

最新Source: Space-Track

元期: Sep 14, 2026, 13:54 UTC

1 26639U 00081B   26257.57978103 -.00000036  00000-0  00000-0 0  9997
2 26639   6.3437  71.4289 0004437 207.7736 306.5017  0.99151238 94072

AllMySatでAMC-8をリアルタイム追跡

Download on the App Store